Weather in Belyayevka

Russia / Perm Krai     57°28′08″N   55°28′27″E
temp.,
°C
wind,
m/s
gust,
m/s
humid.,
%
clouds,
%
prec.,
mm/h
press.,
hPa
HPBL,
m
1 march, mon
mon123:00−16ne379389 0.3 1012277
02:00−16ne269594 0.1 1014234
05:00−17nne269687 0.1 1015200
08:00−19nne239778 0.0 101778
11:00−16ne239077 0.1 1018303
14:00−11nne128193 0.0 1017527
17:00−11nw228697 0.1 1017390
20:00−17sw129692 0.0 101620
2 march, tue
tue223:00−18ssw239875 0.0 101529
02:00−19s389969 0.0 1013203
05:00−17s5119684 0.1 1010353
08:00−17s61296100 0.4 1007397
11:00−16s61294100 1.1 1004495
14:00−12s71293100 0.8 1001593
17:00−10s61292100 1.3 999613
20:00−10s51194100 0.9 997516
3 march, wed
wed323:00−8s51295100 2.1 996475
02:00−7s41095100 0.8 994347
05:00−5ssw2697100 2.6 994240
08:00−7nw2496100 0.9 994174
11:00−7nnw2393100 1.3 995255
14:00−4wnw238899 0.0 996435
17:00−3wsw249499 0.1 996364
20:00−4w3897100 0.9 997428
4 march, thu
thu423:00−6nw41094100 1.5 998478
02:00−11wnw369592 0.1 998149
05:00−14wsw229676 0.1 99931
08:00−15sw249899 0.1 1000104
11:00−10sw3694100 0.3 1000330
14:00−7sw4791100 0.2 999582
17:00−6sw5889100 0.3 999708
20:00−8s41192100 0.1 997439
5 march, fri
fri523:00−6s51394100 0.8 994732
02:00−5s61394100 1.3 990726
05:00−3ssw41097100 3.1 987628
08:00−2sw41097100 2.1 985599
11:00−5w61086100 3.7 987964
14:00−5w71188100 0.3 9931068
17:00−7wnw71185100 0.4 10001009
20:00−11w41289100 0.1 1004536